TimeMST,TemperatureF,Dew PointF,Humidity,Sea Level PressureIn,VisibilityMPH,Wind Direction,Wind SpeedMPH,Gust SpeedMPH,PrecipitationIn,Events,Conditions,WindDirDegrees,DateUTC
12:53 AM,37.0,21.0,52,29.87,10.0,South,11.5,-,N/A,,Clear,170,2014-02-19 07:53:00
1:53 AM,37.0,21.0,52,29.83,10.0,SSE,11.5,-,N/A,,Partly Cloudy,160,2014-02-19 08:53:00
2:53 AM,37.9,21.0,51,29.79,10.0,SSE,12.7,-,N/A,,Clear,160,2014-02-19 09:53:00
3:53 AM,37.9,19.9,48,29.74,10.0,South,15.0,-,N/A,,Partly Cloudy,170,2014-02-19 10:53:00
4:53 AM,41.0,21.0,45,29.71,10.0,SE,10.4,-,N/A,,Overcast,130,2014-02-19 11:53:00
5:53 AM,44.1,19.9,38,29.69,10.0,South,17.3,-,N/A,,Overcast,170,2014-02-19 12:53:00
6:53 AM,39.9,23.0,51,29.70,10.0,NNW,8.1,-,N/A,,Overcast,330,2014-02-19 13:53:00
7:53 AM,39.0,24.1,55,29.70,10.0,Calm,Calm,-,N/A,,Overcast,0,2014-02-19 14:53:00
8:53 AM,42.1,25.0,51,29.71,10.0,Calm,Calm,-,N/A,,Overcast,0,2014-02-19 15:53:00
9:35 AM,43.0,26.1,51,29.78,10.0,NNW,18.4,29.9,N/A,,Overcast,340,2014-02-19 16:35:00
9:53 AM,39.9,27.0,60,29.78,10.0,NNW,19.6,33.4,N/A,,Scattered Clouds,340,2014-02-19 16:53:00
10:53 AM,37.9,25.0,60,29.82,10.0,North,20.7,31.1,N/A,,Overcast,360,2014-02-19 17:53:00
11:53 AM,37.9,24.1,57,29.86,10.0,NNW,12.7,-,N/A,,Overcast,330,2014-02-19 18:53:00
12:53 PM,39.0,21.9,50,29.85,10.0,West,5.8,-,N/A,,Overcast,280,2014-02-19 19:53:00
1:37 PM,35.1,27.0,72,29.86,3.0,WNW,16.1,23.0,0.01,Snow,Light Snow,290,2014-02-19 20:37:00
1:45 PM,36.0,23.0,59,29.86,4.0,WNW,10.4,23.0,0.01,Snow,Light Snow,300,2014-02-19 20:45:00
1:53 PM,37.9,19.9,48,29.85,9.0,NNW,17.3,25.3,0.01,,Overcast,330,2014-02-19 20:53:00
2:53 PM,37.9,21.0,51,29.86,10.0,WNW,17.3,26.5,0.00,,Overcast,300,2014-02-19 21:53:00
3:53 PM,39.0,10.0,30,29.88,10.0,NNW,20.7,29.9,N/A,,Scattered Clouds,330,2014-02-19 22:53:00
4:53 PM,37.9,12.0,35,29.89,10.0,NNW,23.0,28.8,N/A,,Clear,330,2014-02-19 23:53:00
5:53 PM,35.1,12.0,39,29.93,10.0,NNW,19.6,-,N/A,,Clear,330,2014-02-20 00:53:00
6:53 PM,33.1,16.0,50,29.99,10.0,NNW,18.4,29.9,N/A,,Mostly Cloudy,330,2014-02-20 01:53:00
7:53 PM,30.9,16.0,54,30.04,10.0,NNW,10.4,-,N/A,,Mostly Cloudy,330,2014-02-20 02:53:00
8:53 PM,30.0,19.0,64,30.07,10.0,NNW,6.9,-,N/A,,Overcast,330,2014-02-20 03:53:00
9:53 PM,28.0,18.0,66,30.11,10.0,ENE,6.9,-,N/A,,Clear,60,2014-02-20 04:53:00
10:53 PM,28.0,17.1,63,30.13,10.0,Calm,Calm,-,N/A,,Clear,0,2014-02-20 05:53:00
11:53 PM,26.1,17.1,69,30.15,10.0,South,3.5,-,N/A,,Clear,190,2014-02-20 06:53:00